OBJECT A, 61614

Orbit data source: Space-Track

You're viewing an Uncataloged Satellite

Recently launched and/or uncataloged satellites may have evolving metadata. Metadata may include but not limited to: Owner, Maufacturer, Bus, Motor, and Mission.

OBJECT A, 61614 is a satellite owned by ZJUNI-SAT (CN) in SSO that was launched on Tue, 22 Oct 2024 UTC via a CHANG ZHENG 6 launch vehicle from the Taiyaun Space Center, China (TSC). Unknown objects in Earth's orbit typically refer to objects detected orbiting the Earth but have not yet been identified or cataloged. These objects could be anything from previously untracked satellites, spent rocket stages, debris from satellite collisions, or even natural meteoroids temporarily captured by Earth's gravity.

Loading next visibility...
Identifier
61614, 2024-189A
Orbit
SSO
Last TLE update
6 hours ago
Origin
Manufacturer
ZJUNI-SAT
Mission
Operational Defense Calibration
Bus & Motor
TP-3, Unknown motor
Mass
200 kg wet, ~200 kg dry
Launch date (UTC)
2024-10-22 (6 months ago)
Launch vehicle
CHANG ZHENG 6
Launch site
Taiyaun Space Center, China (TSC)
Object type
Unknown
Shape & HBR
Box, 0.6 m
Radar Cross Section
0.135 m², Large (>1 m²)

Expand to show TLE details & history

TLE from 6 hours ago
0 OBJECT A
1 61614U 24189A   25115.52744752  .00007006  00000-0  55113-3 0  9993
2 61614  97.6016 142.8453 0002350 127.0841 233.0598 15.01141463 27835
Epoch: 2025-04-25T12:39Z
Definitive object data (Epoch: 2025-04-25T12:39:31.465Z)
Latitude
-0.00008°
Longitude
99.18096°
Altitude
567.415 km
Speed
7.577 km/s
True Right ascension
09h 31m 22s
True Declination
0° 00' 00"
Sunlit
Object was in daylight at TLE epoch
Visualization TLE readout
Latitude
-48.8844°
Longitude
-89.32859°
Altitude
582.72 km
Speed
7.567 km/s
Apparent Right ascension
17h 10m 17s
Apparent Declination
-59° 06' 07"
Sunlit
Object is in daylight
Visualization observer readout
Local Sidereal Time
01:44:10
Azimuth
221.58° SW
Elevation
-52.715°
Doppler factor
1
Orbital elements
Apogee altitude
562.005 km
Perigee altitude
558.744 km
Semi-major axis
6,938.512 km
Eccentricity
0.000235
Inclination
97.6016°
RAAN
142.8453°
Arg. of periapsis
127.0841°
True anomaly
233.03828°
Mean anomaly
233.0598°
Eccentric anomaly
233.04904°
Mean motion
3.75529 °/min
BSTAR
0.00055113
Orbital period
95.86 mins
Loading maneuver chart data...
Loading SW <> Apogee altitude chart data...
Loading historical data...
Loading historical data...
Loading historical data...
Loading historical data...
Loading historical data...
Loading historical data...
Loading historical data...
Other satellites on launch #189 in the year 2024 (2024-10-22 UTC)

OBJECT A Visibility forecast

Observer location: undefined°, undefined°

Span
Click to sort rows by Start time (UTC) header in descending order
Start Az.
Max El. time (UTC)
Max El. Az.
Max El.
End time (UTC)
End Az.
7 mins2025-04-26 01:34:33.185Z155.177° SSE2025-04-26 01:38:33.185Z53.554° ENE41.039°2025-04-26 01:41:33.185Z356.648° N
6 mins2025-04-26 14:49:33.185Z3.953° NNE2025-04-26 14:52:33.185Z265.83° W42.505°2025-04-26 14:55:33.185Z203.741° SW
|